Latest:
 RWRNE |
  [top]

000
ASUS43 KOAX 311702
RWRNE

WEATHER ROUNDUP FOR NEBRASKA
NATIONAL WEATHER SERVICE OMAHA NE
1200 PM CDT TUE MAY 31 2016

NOTES: SATELLITE DATA IS BEING USED TO AUGMENT CLOUD COVER ABOVE
       12000 FEET.
       "FAIR" INDICATES FEW OR NO CLOUDS BELOW 12,000 FEET WITH NO
       SIGNIFICANT WEATHER AND/OR OBSTRUCTIONS TO VISIBILITY.

  * THESE STATIONS DO NOT REPORT WEATHER SUCH AS RAIN...SNOW OR FOG.

NEZ001>004-019>022-054>056-311800-
NEBRASKA PANHANDLE

CITY           SKY/WX    TMP DP  RH WIND       PRES   REMARKS
SCOTTSBLUFF    CLOUDY    61  39  44 W9G17     30.11F
ALLIANCE       SUNNY     62  40  44 W10G18    30.08F
CHADRON        MOSUNNY   67  35  30 W23G30    30.04F
SIDNEY         CLOUDY    53  42  66 N8        30.13F
$$

NEZ057>060-069>072-079>082-311800-
SOUTHWEST NEBRASKA

CITY           SKY/WX    TMP DP  RH WIND       PRES   REMARKS
NORTH PLATTE   PTSUNNY   64  46  52 NW8       30.09F
IMPERIAL       SUNNY     61  44  53 N10       30.10F
LEXINGTON      MOSUNNY   65  48  54 N10G16    30.06F
MCCOOK         SUNNY     66  47  50 N10G20    30.06F
$$

NEZ005>010-023>029-035>040-094-311800-
NORTH CENTRAL NEBRASKA

CITY           SKY/WX    TMP DP  RH WIND       PRES   REMARKS
VALENTINE      SUNNY     68  40  35 W20G31    29.99S
AINSWORTH      CLOUDY    64  44  48 SW14      30.01F
BROKEN BOW     CLOUDY    64  44  48 NW9       30.06R
ORD            PTSUNNY   68  43  40 NW13      30.02S
$$

NEZ041-046>049-061>064-073>077-083>087-311800-
SOUTH CENTRAL NEBRASKA

CITY           SKY/WX    TMP DP  RH WIND       PRES   REMARKS
GRAND ISLAND   SUNNY     67  51  56 N12       30.02S
HASTINGS       PTSUNNY   67  53  61 N14       30.02R
KEARNEY *      SUNNY     66  48  52 N14       30.04F
YORK           CLOUDY    66  55  68 N12       30.00R
$$

NEZ011>018-030>034-042>045-311800-
NORTHEAST NEBRASKA

CITY           SKY/WX    TMP DP  RH WIND       PRES   REMARKS
NORFOLK        MOSUNNY   67  48  50 N15       29.98F
FREMONT        PTSUNNY   68  58  70 NW9       29.97S
TEKAMAH        CLOUDY    69  59  70 NW12      29.95S
$$

NEZ050>053-065>068-078-088>093-311800-
SOUTHEAST NEBRASKA

CITY           SKY/WX    TMP DP  RH WIND       PRES   REMARKS
LINCOLN        CLOUDY    71  58  63 N10       29.97S
OMAHA EPPLEY   CLOUDY    69  61  75 N14       29.94R
FALLS CITY     LGT RAIN  75  61  61 CALM      29.92F
PLATTSMOUTH    CLOUDY    70  62  77 NW12      29.94S
$$

NEZ044-045-051>053-067-311800-
OMAHA AREA

CITY           SKY/WX    TMP DP  RH WIND       PRES   REMARKS
OMAHA EPPLEY   CLOUDY    69  61  75 N14       29.94R
FREMONT        PTSUNNY   68  58  70 NW9       29.97S
OFFUTT AFB     CLOUDY    69  61  77 NW9       29.93F
PLATTSMOUTH    CLOUDY    70  62  77 NW12      29.94S
$$





000
ASUS43 KOAX 311310
RWRNE

WEATHER ROUNDUP FOR NEBRASKA
NATIONAL WEATHER SERVICE OMAHA NE
800 AM CDT TUE MAY 31 2016

NOTES: SATELLITE DATA IS BEING USED TO AUGMENT CLOUD COVER ABOVE
       12000 FEET.
       "FAIR" INDICATES FEW OR NO CLOUDS BELOW 12,000 FEET WITH NO
       SIGNIFICANT WEATHER AND/OR OBSTRUCTIONS TO VISIBILITY.

  * THESE STATIONS DO NOT REPORT WEATHER SUCH AS RAIN...SNOW OR FOG.

NEZ001>004-019>022-054>056-311400-
NEBRASKA PANHANDLE

CITY           SKY/WX    TMP DP  RH WIND       PRES   REMARKS
SCOTTSBLUFF    CLOUDY    50  42  74 NW9       30.12R
ALLIANCE       CLOUDY    50  44  80 W5        30.09R
CHADRON        MOSUNNY   51  43  74 W7        30.09R
KIMBALL        CLOUDY    47  40  78 W7        30.15R
SIDNEY         CLOUDY    49  45  86 W9        30.13R
$$

NEZ057>060-069>072-079>082-311400-
SOUTHWEST NEBRASKA

CITY           SKY/WX    TMP DP  RH WIND       PRES   REMARKS
NORTH PLATTE   SUNNY     55  47  74 N7        30.07R
IMPERIAL       SUNNY     54  46  74 NW10      30.10R
LEXINGTON      CLOUDY    56  50  81 N7        30.04R
MCCOOK         MOSUNNY   55  50  83 NW3       30.07R
OGALLALA       PTSUNNY   52  47  83 W6        30.09R
$$

NEZ005>010-023>029-035>040-094-311400-
NORTH CENTRAL NEBRASKA

CITY           SKY/WX    TMP DP  RH WIND       PRES   REMARKS
VALENTINE      CLOUDY    55  43  63 W8        30.02S
AINSWORTH      SUNNY     54  45  72 NW14      30.02R
BROKEN BOW     SUNNY     56  49  77 N9        30.03R
O`NEILL        SUNNY     57  48  72 NW20      29.99R
ORD            CLOUDY    57  48  72 NW7       29.99R
THEDFORD       PTSUNNY   54  45  71 NW8       30.05S
$$

NEZ041-046>049-061>064-073>077-083>087-311400-
SOUTH CENTRAL NEBRASKA

CITY           SKY/WX    TMP DP  RH WIND       PRES   REMARKS
GRAND ISLAND   CLOUDY    59  54  83 N13       29.99R
AURORA         CLOUDY    61  59  95 N14       29.99R
HASTINGS       CLOUDY    59  55  87 N14       29.99R
HEBRON         CLOUDY    61  59  94 W6        29.96S
HOLDREGE       CLOUDY    57  51  79 N12       30.02R
KEARNEY *      PTSUNNY   57  48  72 N10       30.02R
YORK           CLOUDY    63  59  88 NW7       29.98R
$$

NEZ011>018-030>034-042>045-311400-
NORTHEAST NEBRASKA

CITY           SKY/WX    TMP DP  RH WIND       PRES   REMARKS
NORFOLK        CLOUDY    58  53  84 NW8       29.95R
ALBION         CLOUDY    56  51  83 NW10      29.98R
BLAIR          CLOUDY    65  59  82 CALM      29.93R
FREMONT        CLOUDY    63  59  89 W9        29.94R
TEKAMAH        LGT RAIN  63  60  90 W5        29.91R
WAYNE          CLOUDY    60  56  88 NW9G20    29.95R
$$

NEZ050>053-065>068-078-088>093-311400-
SOUTHEAST NEBRASKA

CITY           SKY/WX    TMP DP  RH WIND       PRES   REMARKS
LINCOLN        LGT RAIN  64  59  83 W10       29.95R
OMAHA EPPLEY   CLOUDY    67  59  75 CALM      29.90S
BEATRICE       CLOUDY    64  60  87 NW8       29.94R
FALLS CITY     LGT RAIN  67  61  81 SW3       29.90F
NEBRASKA CITY  PTSUNNY   65  64  97 W8        29.89F
PLATTSMOUTH    CLOUDY    67  65  93 SW5       29.91S
$$

NEZ044-045-051>053-067-311400-
OMAHA AREA

CITY           SKY/WX    TMP DP  RH WIND       PRES   REMARKS
OMAHA EPPLEY   CLOUDY    67  59  75 CALM      29.90S
BLAIR          CLOUDY    65  59  82 CALM      29.93R
FREMONT        CLOUDY    63  59  89 W9        29.94R
MILLARD        CLOUDY    67  63  85 CALM      29.91S
OFFUTT AFB     MOSUNNY   67  63  89 S3        29.89F
PLATTSMOUTH    CLOUDY    67  65  93 SW5       29.91S
WAHOO          RAIN      64  60  87 W14       29.95R
$$





000
ASUS43 KOAX 311302
RWRNE

WEATHER ROUNDUP FOR NEBRASKA
NATIONAL WEATHER SERVICE OMAHA NE
800 AM CDT TUE MAY 31 2016

NOTES: SATELLITE DATA IS BEING USED TO AUGMENT CLOUD COVER ABOVE
       12000 FEET.
       "FAIR" INDICATES FEW OR NO CLOUDS BELOW 12,000 FEET WITH NO
       SIGNIFICANT WEATHER AND/OR OBSTRUCTIONS TO VISIBILITY.

  * THESE STATIONS DO NOT REPORT WEATHER SUCH AS RAIN...SNOW OR FOG.

NEZ001>004-019>022-054>056-311400-
NEBRASKA PANHANDLE

CITY           SKY/WX    TMP DP  RH WIND       PRES   REMARKS
SCOTTSBLUFF    CLOUDY    50  42  74 NW9       30.12R
ALLIANCE       CLOUDY    50  44  80 W5        30.09R
CHADRON        MOSUNNY   51  43  74 W7        30.09R
SIDNEY         CLOUDY    49  45  86 W9        30.13R
$$

NEZ057>060-069>072-079>082-311400-
SOUTHWEST NEBRASKA

CITY           SKY/WX    TMP DP  RH WIND       PRES   REMARKS
NORTH PLATTE   SUNNY     55  47  74 N7        30.07R
IMPERIAL       SUNNY     54  46  74 NW10      30.10R
LEXINGTON      CLOUDY    56  50  81 N7        30.04R
MCCOOK         MOSUNNY   55  50  83 NW3       30.07R
$$

NEZ005>010-023>029-035>040-094-311400-
NORTH CENTRAL NEBRASKA

CITY           SKY/WX    TMP DP  RH WIND       PRES   REMARKS
VALENTINE      CLOUDY    55  43  63 W8        30.02S
AINSWORTH      SUNNY     54  45  72 NW14      30.02R
BROKEN BOW     SUNNY     56  49  77 N9        30.03R
ORD            CLOUDY    57  48  72 NW7       29.99R
$$

NEZ041-046>049-061>064-073>077-083>087-311400-
SOUTH CENTRAL NEBRASKA

CITY           SKY/WX    TMP DP  RH WIND       PRES   REMARKS
GRAND ISLAND   CLOUDY    59  54  83 N13       29.99R
AURORA         CLOUDY    61  59  95 N14       29.99R
HASTINGS       CLOUDY    59  55  87 N14       29.99R
KEARNEY *      PTSUNNY   57  48  72 N10       30.02R
YORK           CLOUDY    63  59  88 NW7       29.98R
$$

NEZ011>018-030>034-042>045-311400-
NORTHEAST NEBRASKA

CITY           SKY/WX    TMP DP  RH WIND       PRES   REMARKS
NORFOLK        CLOUDY    58  53  84 NW8       29.95R
ALBION         CLOUDY    56  51  83 NW10      29.98R
BLAIR          CLOUDY    65  59  82 CALM      29.93R
FREMONT        CLOUDY    63  59  89 W9        29.94R
TEKAMAH        LGT RAIN  63  60  90 W5        29.91R
$$

NEZ050>053-065>068-078-088>093-311400-
SOUTHEAST NEBRASKA

CITY           SKY/WX    TMP DP  RH WIND       PRES   REMARKS
LINCOLN        LGT RAIN  64  59  83 W10       29.95R
OMAHA EPPLEY   CLOUDY    67  59  75 CALM      29.90S
BEATRICE       CLOUDY    64  60  87 NW8       29.94R
FALLS CITY     LGT RAIN  67  61  81 SW3       29.90F
NEBRASKA CITY  PTSUNNY   65  64  97 W8        29.89F
PLATTSMOUTH    CLOUDY    67  65  93 SW5       29.91S
$$

NEZ044-045-051>053-067-311400-
OMAHA AREA

CITY           SKY/WX    TMP DP  RH WIND       PRES   REMARKS
OMAHA EPPLEY   CLOUDY    67  59  75 CALM      29.90S
BLAIR          CLOUDY    65  59  82 CALM      29.93R
FREMONT        CLOUDY    63  59  89 W9        29.94R
PLATTSMOUTH    CLOUDY    67  65  93 SW5       29.91S
WAHOO          RAIN      64  60  87 W14       29.95R
$$





000
ASUS43 KOAX 311210
RWRNE

WEATHER ROUNDUP FOR NEBRASKA
NATIONAL WEATHER SERVICE OMAHA NE
700 AM CDT TUE MAY 31 2016

NOTES: SATELLITE DATA IS BEING USED TO AUGMENT CLOUD COVER ABOVE
       12000 FEET.
       "FAIR" INDICATES FEW OR NO CLOUDS BELOW 12,000 FEET WITH NO
       SIGNIFICANT WEATHER AND/OR OBSTRUCTIONS TO VISIBILITY.

  * THESE STATIONS DO NOT REPORT WEATHER SUCH AS RAIN...SNOW OR FOG.

NEZ001>004-019>022-054>056-311300-
NEBRASKA PANHANDLE

CITY           SKY/WX    TMP DP  RH WIND       PRES   REMARKS
SCOTTSBLUFF    CLOUDY    50  41  71 NW6       30.11R
6HR MIN TEMP:  49; 6HR MAX TEMP:  55; 6HR PCP: TRACE;

ALLIANCE       CLOUDY    49  43  80 NW5       30.08R
6HR MIN TEMP:  49; 6HR MAX TEMP:  51; 6HR PCP:  0.03;

CHADRON        CLOUDY    47  41  80 W7        30.08R
6HR MIN TEMP:  46; 6HR MAX TEMP:  52;

KIMBALL        CLOUDY    46  40  81 NW7       30.14R
SIDNEY         CLOUDY    48  45  89 W7        30.12R
6HR MIN TEMP:  47; 6HR MAX TEMP:  54; 6HR PCP:  0.02;

$$

NEZ057>060-069>072-079>082-311300-
SOUTHWEST NEBRASKA

CITY           SKY/WX    TMP DP  RH WIND       PRES   REMARKS
NORTH PLATTE   PTCLDY    51  46  83 W8        30.05R
6HR MIN TEMP:  50; 6HR MAX TEMP:  59;

IMPERIAL       PTCLDY    52  47  83 N5        30.08R
6HR MIN TEMP:  51; 6HR MAX TEMP:  58;

LEXINGTON      CLOUDY    54  49  85 NW5       30.02R
MCCOOK         CLOUDY    53  49  86 N7        30.04R
6HR MIN TEMP:  53; 6HR MAX TEMP:  57;

OGALLALA       MOCLDY    51  42  72 CALM      30.08R
$$

NEZ005>010-023>029-035>040-094-311300-
NORTH CENTRAL NEBRASKA

CITY           SKY/WX    TMP DP  RH WIND       PRES   REMARKS
VALENTINE      CLEAR     49  44  83 NW3       30.02R
6HR MIN TEMP:  45; 6HR MAX TEMP:  56;

AINSWORTH      CLEAR     51  46  85 W5        30.01S
BROKEN BOW     PTCLDY    53  48  83 N6        30.01R
6HR MIN TEMP:  53; 6HR MAX TEMP:  61;

O`NEILL        CLOUDY    54  49  84 NW8       29.97S
ORD            CLOUDY    54  48  80 NW9       29.98R
6HR MIN TEMP:  54; 6HR MAX TEMP:  63; 6HR PCP: TRACE;

THEDFORD       CLEAR     50  47  90 W3        30.04R
$$

NEZ041-046>049-061>064-073>077-083>087-311300-
SOUTH CENTRAL NEBRASKA

CITY           SKY/WX    TMP DP  RH WIND       PRES   REMARKS
GRAND ISLAND   CLOUDY    60  56  86 NW14      29.98R
6HR MIN TEMP:  60; 6HR MAX TEMP:  62; 6HR PCP:  0.07;

AURORA         CLOUDY    61  61 100 NW5       29.97R
HASTINGS       CLOUDY    58  56  93 N9        29.98R
6HR MIN TEMP:  57; 6HR MAX TEMP:  61; 6HR PCP:  0.15;

HEBRON         CLOUDY    60  58  95 NW6       29.95R
HOLDREGE       CLOUDY    57  54  89 N8        30.00R
KEARNEY *      MOCLDY    57  52  82 N12       30.01R
YORK           CLOUDY    61  59  94 NW6       29.96R
$$

NEZ011>018-030>034-042>045-311300-
NORTHEAST NEBRASKA

CITY           SKY/WX    TMP DP  RH WIND       PRES   REMARKS
NORFOLK        MOCLDY    59  55  87 NW15      29.92R
6HR MIN TEMP:  59; 6HR MAX TEMP:  61; 6HR PCP:  0.17;

ALBION         CLOUDY    56  53  90 NW13G20   29.96S
BLAIR          CLOUDY    64  59  83 NE9       29.90S
FREMONT        CLOUDY    62  58  87 CALM      29.91R
TEKAMAH        LGT RAIN  63  60  90 NE7       29.89F
6HR MIN TEMP:  63; 6HR MAX TEMP:  69; 6HR PCP:  0.01;

WAYNE          CLOUDY    60  57  90 N14       29.90S
$$

NEZ050>053-065>068-078-088>093-311300-
SOUTHEAST NEBRASKA

CITY           SKY/WX    TMP DP  RH WIND       PRES   REMARKS
LINCOLN        CLOUDY    65  58  78 W7        29.94R
6HR MIN TEMP:  65; 6HR MAX TEMP:  72; 6HR PCP: TRACE;

OMAHA EPPLEY   CLOUDY    67  62  84 N7        29.90R
6HR MIN TEMP:  66; 6HR MAX TEMP:  71;

BEATRICE       CLOUDY    61  59  92 W6        29.93S
FALLS CITY     LGT RAIN  65  61  87 W8        29.91R
6HR MIN TEMP:  64; 6HR MAX TEMP:  68; 6HR PCP: TRACE;

NEBRASKA CITY  PTSUNNY   64  64 100 SW10      29.92R
PLATTSMOUTH    PTSUNNY   65  64  96 S7        29.91R
$$

NEZ044-045-051>053-067-311300-
OMAHA AREA

CITY           SKY/WX    TMP DP  RH WIND       PRES   REMARKS
OMAHA EPPLEY   CLOUDY    67  62  84 N7        29.90R
6HR MIN TEMP:  66; 6HR MAX TEMP:  71;

BLAIR          CLOUDY    64  59  83 NE9       29.90S
FREMONT        CLOUDY    62  58  87 CALM      29.91R
MILLARD        PTSUNNY   67  62  84 N3        29.90R
PLATTSMOUTH    PTSUNNY   65  64  96 S7        29.91R
WAHOO          CLOUDY    64  59  85 W5        29.92R
$$





000
ASUS43 KOAX 311110
RWRNE

WEATHER ROUNDUP FOR NEBRASKA
NATIONAL WEATHER SERVICE OMAHA NE
600 AM CDT TUE MAY 31 2016

NOTES: SATELLITE DATA IS BEING USED TO AUGMENT CLOUD COVER ABOVE
       12000 FEET.
       "FAIR" INDICATES FEW OR NO CLOUDS BELOW 12,000 FEET WITH NO
       SIGNIFICANT WEATHER AND/OR OBSTRUCTIONS TO VISIBILITY.

  * THESE STATIONS DO NOT REPORT WEATHER SUCH AS RAIN...SNOW OR FOG.

NEZ001>004-019>022-054>056-311200-
NEBRASKA PANHANDLE

CITY           SKY/WX    TMP DP  RH WIND       PRES   REMARKS
SCOTTSBLUFF    CLOUDY    50  42  74 W8        30.09R
ALLIANCE       CLOUDY    50  46  86 NW8       30.06R
CHADRON        CLOUDY    48  42  80 SW6       30.07R
KIMBALL        CLOUDY    46  39  77 NW8       30.13R
SIDNEY         CLEAR     47  45  93 NW10      30.09S
$$

NEZ057>060-069>072-079>082-311200-
SOUTHWEST NEBRASKA

CITY           SKY/WX    TMP DP  RH WIND       PRES   REMARKS
NORTH PLATTE   PTCLDY    51  47  86 N12       30.01F
IMPERIAL       CLEAR     52  48  86 N9        30.05R
LEXINGTON      CLOUDY    56  51  84 N10       30.00R
MCCOOK         CLOUDY    54  51  90 N7        30.01R
OGALLALA       CLEAR     49  43  79 N3        30.05S
$$

NEZ005>010-023>029-035>040-094-311200-
NORTH CENTRAL NEBRASKA

CITY           SKY/WX    TMP DP  RH WIND       PRES   REMARKS
VALENTINE      CLEAR     47  43  86 W7        30.01R
AINSWORTH      CLEAR     49  46  89 W6        30.01R
BROKEN BOW     CLOUDY    54  49  83 N8        29.98F
O`NEILL        PTCLDY    55  50  82 NW12      29.97S
ORD            CLOUDY    56  50  80 NW14      29.96R
THEDFORD       CLEAR     49  47  93 W5        30.03S
$$

NEZ041-046>049-061>064-073>077-083>087-311200-
SOUTH CENTRAL NEBRASKA

CITY           SKY/WX    TMP DP  RH WIND       PRES   REMARKS
GRAND ISLAND   CLOUDY    60  58  92 NW6       29.97R
AURORA         CLOUDY    61  60  99 W3        29.95R
HASTINGS       CLOUDY    58  57  97 SW3       29.97R
HEBRON         CLOUDY    59  58  97 W3        29.95R
HOLDREGE       CLOUDY    58  54  86 N7        29.99R
KEARNEY *      CLOUDY    59  54  82 N13G20    29.99R
YORK           CLOUDY    61  59  94 W5        29.94R
$$

NEZ011>018-030>034-042>045-311200-
NORTHEAST NEBRASKA

CITY           SKY/WX    TMP DP  RH WIND       PRES   REMARKS
NORFOLK        CLOUDY    60  56  86 NW12      29.90F
ALBION         CLOUDY    58  55  91 NW9       29.93F
BLAIR          CLOUDY    65  58  77 N10       29.89S
FREMONT        CLOUDY    62  58  87 N5        29.89F
TEKAMAH        CLOUDY    63  58  83 NW5       29.90R
WAYNE          LGT RAIN  61  59  94 NW8       29.91F
$$

NEZ050>053-065>068-078-088>093-311200-
SOUTHEAST NEBRASKA

CITY           SKY/WX    TMP DP  RH WIND       PRES   REMARKS
LINCOLN        CLOUDY    65  57  75 N6        29.92R
OMAHA EPPLEY   CLOUDY    67  62  84 CALM      29.89R
BEATRICE       CLOUDY    61  58  90 W8        29.93R
FALLS CITY     LGT RAIN  65  60  84 S10       29.89R
NEBRASKA CITY  CLOUDY    64  64 100 S7        29.88F
PLATTSMOUTH    CLOUDY    65  64  94 SE6       29.88S
$$

NEZ044-045-051>053-067-311200-
OMAHA AREA

CITY           SKY/WX    TMP DP  RH WIND       PRES   REMARKS
OMAHA EPPLEY   CLOUDY    67  62  84 CALM      29.89R
BLAIR          CLOUDY    65  58  77 N10       29.89S
FREMONT        CLOUDY    62  58  87 N5        29.89F
MILLARD        PTCLDY    66  62  86 CALM      29.88R
OFFUTT AFB     CLOUDY    65  63  93 CALM      29.88F
PLATTSMOUTH    CLOUDY    65  64  94 SE6       29.88S
WAHOO          FAIR      64  58  81 N8        29.88S
$$





000
ASUS43 KOAX 311102
RWRNE

WEATHER ROUNDUP FOR NEBRASKA
NATIONAL WEATHER SERVICE OMAHA NE
600 AM CDT TUE MAY 31 2016

NOTES: SATELLITE DATA IS BEING USED TO AUGMENT CLOUD COVER ABOVE
       12000 FEET.
       "FAIR" INDICATES FEW OR NO CLOUDS BELOW 12,000 FEET WITH NO
       SIGNIFICANT WEATHER AND/OR OBSTRUCTIONS TO VISIBILITY.

  * THESE STATIONS DO NOT REPORT WEATHER SUCH AS RAIN...SNOW OR FOG.

NEZ001>004-019>022-054>056-311200-
NEBRASKA PANHANDLE

CITY           SKY/WX    TMP DP  RH WIND       PRES   REMARKS
SCOTTSBLUFF    CLOUDY    50  42  74 W8        30.09R
ALLIANCE       CLOUDY    50  46  86 NW8       30.06R
CHADRON        CLOUDY    48  42  80 SW6       30.07R
SIDNEY         CLEAR     47  45  93 NW10      30.09S
$$

NEZ057>060-069>072-079>082-311200-
SOUTHWEST NEBRASKA

CITY           SKY/WX    TMP DP  RH WIND       PRES   REMARKS
NORTH PLATTE   PTCLDY    51  47  86 N12       30.01F
IMPERIAL       CLEAR     52  48  86 N9        30.05R
LEXINGTON      CLOUDY    56  51  84 N10       30.00R
MCCOOK         CLOUDY    54  51  90 N7        30.01R
$$

NEZ005>010-023>029-035>040-094-311200-
NORTH CENTRAL NEBRASKA

CITY           SKY/WX    TMP DP  RH WIND       PRES   REMARKS
VALENTINE      CLEAR     47  43  86 W7        30.01R
AINSWORTH      CLEAR     49  46  89 W6        30.01R
BROKEN BOW     CLOUDY    54  49  83 N8        29.98F
ORD            CLOUDY    56  50  80 NW14      29.96R
$$

NEZ041-046>049-061>064-073>077-083>087-311200-
SOUTH CENTRAL NEBRASKA

CITY           SKY/WX    TMP DP  RH WIND       PRES   REMARKS
GRAND ISLAND   CLOUDY    60  58  92 NW6       29.97R
AURORA         CLOUDY    61  60  99 W3        29.95R
HASTINGS       CLOUDY    58  57  97 SW3       29.97R
KEARNEY *      CLOUDY    59  54  82 N13G20    29.99R
YORK           CLOUDY    61  59  94 W5        29.94R
$$

NEZ011>018-030>034-042>045-311200-
NORTHEAST NEBRASKA

CITY           SKY/WX    TMP DP  RH WIND       PRES   REMARKS
NORFOLK        CLOUDY    60  56  86 NW12      29.90F
ALBION         CLOUDY    58  55  91 NW9       29.93F
BLAIR          CLOUDY    65  58  77 N10       29.89S
FREMONT        CLOUDY    62  58  87 N5        29.89F
TEKAMAH        CLOUDY    63  58  83 NW5       29.90R
$$

NEZ050>053-065>068-078-088>093-311200-
SOUTHEAST NEBRASKA

CITY           SKY/WX    TMP DP  RH WIND       PRES   REMARKS
LINCOLN        CLOUDY    65  57  75 N6        29.92R
OMAHA EPPLEY   CLOUDY    67  62  84 CALM      29.89R
BEATRICE       CLOUDY    61  58  90 W8        29.93R
FALLS CITY     LGT RAIN  65  60  84 S10       29.89R
NEBRASKA CITY  CLOUDY    64  64 100 S7        29.88F
PLATTSMOUTH    CLOUDY    65  64  94 SE6       29.88S
$$

NEZ044-045-051>053-067-311200-
OMAHA AREA

CITY           SKY/WX    TMP DP  RH WIND       PRES   REMARKS
OMAHA EPPLEY   CLOUDY    67  62  84 CALM      29.89R
BLAIR          CLOUDY    65  58  77 N10       29.89S
FREMONT        CLOUDY    62  58  87 N5        29.89F
PLATTSMOUTH    CLOUDY    65  64  94 SE6       29.88S
WAHOO          FAIR      64  58  81 N8        29.88S
$$





000
ASUS43 KOAX 310802
RWRNE

WEATHER ROUNDUP FOR NEBRASKA
NATIONAL WEATHER SERVICE OMAHA NE
300 AM CDT TUE MAY 31 2016

NOTES: SATELLITE DATA IS BEING USED TO AUGMENT CLOUD COVER ABOVE
       12000 FEET.
       "FAIR" INDICATES FEW OR NO CLOUDS BELOW 12,000 FEET WITH NO
       SIGNIFICANT WEATHER AND/OR OBSTRUCTIONS TO VISIBILITY.

  * THESE STATIONS DO NOT REPORT WEATHER SUCH AS RAIN...SNOW OR FOG.

NEZ001>004-019>022-054>056-310900-
NEBRASKA PANHANDLE

CITY           SKY/WX    TMP DP  RH WIND       PRES   REMARKS
SCOTTSBLUFF    LGT RAIN  52  43  71 NW6       30.12S
ALLIANCE       LGT RAIN  51  47  86 N8        30.08R
CHADRON        CLOUDY    51  46  83 SW9       30.06F
SIDNEY         MOCLDY    51  49  92 N18       30.07F
$$

NEZ057>060-069>072-079>082-310900-
SOUTHWEST NEBRASKA

CITY           SKY/WX    TMP DP  RH WIND       PRES   REMARKS
NORTH PLATTE   CLOUDY    56  51  84 W3        29.99R
IMPERIAL       PTCLDY    57  52  83 N8        30.04R
LEXINGTON      CLOUDY    57  55  90 W7        29.97R
MCCOOK         CLOUDY    56  53  90 NW12      29.98R
$$

NEZ005>010-023>029-035>040-094-310900-
NORTH CENTRAL NEBRASKA

CITY           SKY/WX    TMP DP  RH WIND       PRES   REMARKS
VALENTINE      CLOUDY    52  46  80 W7        29.97R
AINSWORTH      CLOUDY    55  48  77 NW13      29.98R
BROKEN BOW     PTCLDY    59  54  83 N16       29.94R
ORD            CLOUDY    61  55  81 N10       29.92R
$$

NEZ041-046>049-061>064-073>077-083>087-310900-
SOUTH CENTRAL NEBRASKA

CITY           SKY/WX    TMP DP  RH WIND       PRES   REMARKS
GRAND ISLAND   CLOUDY    61  58  90 W7        29.91R
HASTINGS       CLOUDY    60  58  92 W7        29.93R
KEARNEY *      CLOUDY    59  55  88 NW5       29.94R
YORK           LGT RAIN  63  59  88 E9        29.88F
$$

NEZ011>018-030>034-042>045-310900-
NORTHEAST NEBRASKA

CITY           SKY/WX    TMP DP  RH WIND       PRES   REMARKS
NORFOLK        CLOUDY    60  58  92 CALM      29.87F
ALBION         RAIN      59  57  91 NW8       29.89R
BLAIR          CLOUDY    68  62  81 S16       29.88F
FREMONT        CLOUDY    69  60  73 W5        29.88S
TEKAMAH        TSTM      65  57  75 W17       29.88R
$$

NEZ050>053-065>068-078-088>093-310900-
SOUTHEAST NEBRASKA

CITY           SKY/WX    TMP DP  RH WIND       PRES   REMARKS
LINCOLN        CLOUDY    68  56  65 NW7       29.90F
OMAHA EPPLEY   CLOUDY    70  61  73 S12       29.89R
FALLS CITY     LGT RAIN  65  60  84 S7        29.91S
PLATTSMOUTH    CLOUDY    69  64  83 SW13      29.90R
$$

NEZ044-045-051>053-067-310900-
OMAHA AREA

CITY           SKY/WX    TMP DP  RH WIND       PRES   REMARKS
OMAHA EPPLEY   CLOUDY    70  61  73 S12       29.89R
BLAIR          CLOUDY    68  62  81 S16       29.88F
FREMONT        CLOUDY    69  60  73 W5        29.88S
OFFUTT AFB     PTCLDY    70  63  78 S7        29.89R
PLATTSMOUTH    CLOUDY    69  64  83 SW13      29.90R
$$





000
ASUS43 KOAX 310702
RWRNE

WEATHER ROUNDUP FOR NEBRASKA
NATIONAL WEATHER SERVICE OMAHA NE
200 AM CDT TUE MAY 31 2016

NOTES: SATELLITE DATA IS BEING USED TO AUGMENT CLOUD COVER ABOVE
       12000 FEET.
       "FAIR" INDICATES FEW OR NO CLOUDS BELOW 12,000 FEET WITH NO
       SIGNIFICANT WEATHER AND/OR OBSTRUCTIONS TO VISIBILITY.

  * THESE STATIONS DO NOT REPORT WEATHER SUCH AS RAIN...SNOW OR FOG.

NEZ001>004-019>022-054>056-310800-
NEBRASKA PANHANDLE

CITY           SKY/WX    TMP DP  RH WIND       PRES   REMARKS
SCOTTSBLUFF    CLOUDY    54  45  71 NW10      30.12R
ALLIANCE       LGT RAIN  51  48  89 N9        30.07F
CHADRON        CLOUDY    51  48  89 CALM      30.09R
SIDNEY         LGT RAIN  53  49  86 N14       30.09R
$$

NEZ057>060-069>072-079>082-310800-
SOUTHWEST NEBRASKA

CITY           SKY/WX    TMP DP  RH WIND       PRES   REMARKS
NORTH PLATTE   CLEAR     56  52  86 NW5       29.97R
IMPERIAL       CLEAR     57  53  86 NW7       30.01R
LEXINGTON      CLOUDY    58  54  85 W7        29.93R
MCCOOK         CLOUDY    56  53  90 W7        29.94R
$$

NEZ005>010-023>029-035>040-094-310800-
NORTH CENTRAL NEBRASKA

CITY           SKY/WX    TMP DP  RH WIND       PRES   REMARKS
VALENTINE      CLOUDY    55  47  74 NW7       29.96F
AINSWORTH      CLOUDY    57  54  90 NW10      29.94F
BROKEN BOW     CLOUDY    59  54  83 N15       29.91R
ORD            CLOUDY    62  57  83 N13       29.89R
$$

NEZ041-046>049-061>064-073>077-083>087-310800-
SOUTH CENTRAL NEBRASKA

CITY           SKY/WX    TMP DP  RH WIND       PRES   REMARKS
GRAND ISLAND   LGT RAIN  61  59  93 SE22      29.83F
HASTINGS       LGT RAIN  59  59 100 E9        29.86F
KEARNEY *      CLOUDY    59  55  88 CALM      29.89F
YORK           LGT RAIN  63  59  88 CALM      29.89F
$$

NEZ011>018-030>034-042>045-310800-
NORTHEAST NEBRASKA

CITY           SKY/WX    TMP DP  RH WIND       PRES   REMARKS
NORFOLK        CLOUDY    59  57  93 CALM      29.88S
BLAIR          CLOUDY    68  62  81 S16G24    29.88R
FREMONT        CLOUDY    69  61  75 S13G18    29.88R
TEKAMAH        CLOUDY    68  61  78 S14       29.85F
$$

NEZ050>053-065>068-078-088>093-310800-
SOUTHEAST NEBRASKA

CITY           SKY/WX    TMP DP  RH WIND       PRES   REMARKS
LINCOLN        CLOUDY    72  61  68 SW15G23   29.91R
OMAHA EPPLEY   CLOUDY    70  62  76 S13       29.86F
FALLS CITY     LGT RAIN  67  60  78 S8        29.91F
PLATTSMOUTH    CLOUDY    68  64  86 S12       29.89S
$$

NEZ044-045-051>053-067-310800-
OMAHA AREA

CITY           SKY/WX    TMP DP  RH WIND       PRES   REMARKS
OMAHA EPPLEY   CLOUDY    70  62  76 S13       29.86F
BLAIR          CLOUDY    68  62  81 S16G24    29.88R
FREMONT        CLOUDY    69  61  75 S13G18    29.88R
PLATTSMOUTH    CLOUDY    68  64  86 S12       29.89S
$$





    US Dept of Commerce
    National Oceanic and Atmospheric Administration
    National Weather Service
    1325 East West Highway
    Silver Spring, MD 20910
    Page Author: NWS Internet Services Team
Disclaimer
Information Quality
Credits
Glossary
Privacy Policy
Freedom of Information Act (FOIA)
About Us
Career Opportunities